Location: Clanezzo
(45.7500°N, 9.6000°E)
Time: 10:44:46
(UTC+00:00)

CUTE-I - Pass Details

Date: 04 December 2023
Orbit: 807 x 822 km, 98.7° (Epoch: 23 February)

Event Time Altitude Azimuth Distance (km) Brightness Sun altitude
Rises 05:37:09 0° 16° (NNE) 3,361 ? -11.5°
Reaches altitude 10° 05:39:31 10° 18° (NNE) 2,426 ? -11.1°
Maximum altitude 05:44:54 70° 103° (ESE) 873 ? -10.2°
Drops below altitude 10° 05:50:14 10° 187° (S) 2,415 ? -9.3°
Sets 05:52:35 0° 190° (S) 3,344 ? -9.0°
